x

8454049 - Quonset Point, Ri (qptr1) Weather Station

5:54 - Wed 28th Jun 2017 All times are EDT. -4 hours from GMT.

  • Wind
    6mph, 7mph gusts
  • Sea Temp 68°f
  • Air Temp 59°f
  • Sea Pressure 1017.2mb
  • 8454049 - Quonset Point, Ri
  • 8454049 - Quonset Point, Ri

More Historic Weather Station data

Upgrade to MSW Pro to gain access to the past 30 days of data for over 8000 Wavebouys and Weather Stations around the globe.

Join Pro

Comparision Forecast

View Surf forecast
   
mer. 06/28 5:54 6 7 mph 1017.2mb 68f 59f
5:48 6 7 mph - - -
5:42 6 7 mph 1017mb 68f 59f
5:36 5 6 mph 1016.9mb 68f 59f
5:30 6 7 mph 1016.9mb 68f 59f
5:24 6 7 mph 1016.8mb 68f 59f
5:18 6 9 mph 1016.8mb 68f 59f
5:12 7 8 mph 1016.8mb 68f 59f
5:06 7 8 mph 1016.8mb 68f 59f
5:00 5 6 mph 1016.7mb 68f 60f
4:54 5 7 mph 1016.7mb 68f 59f
4:48 6 7 mph - - -
4:42 6 8 mph 1016.6mb 68f 59f
4:36 6 7 mph 1016.5mb 68f 59f
4:30 6 6 mph 1016.4mb 68f 59f
4:24 3 6 mph 1016.4mb 68f 59f
4:18 5 6 mph 1016.3mb 68f 59f
4:12 2 3 mph 1016.2mb 68f 59f
4:06 2 3 mph 1016.2mb 68f 59f
4:00 2 5 mph 1016.1mb 68f 59f
3:54 3 6 mph 1016.1mb 68f 58f
3:48 5 6 mph - - -
3:42 5 5 mph 1016.1mb 68f 58f
3:36 3 5 mph 1016.1mb 68f 59f
3:30 5 5 mph 1016.1mb 68f 59f
3:24 3 5 mph 1016.1mb 68f 59f
3:18 3 7 mph - - -
3:12 6 9 mph 1016mb 68f 60f
3:06 6 8 mph 1015.9mb 68f 60f
3:00 6 9 mph 1015.8mb 67f 60f
2:54 6 9 mph 1015.8mb 67f 60f
2:48 7 9 mph 1015.8mb 67f 60f
2:42 6 8 mph - - -
2:36 5 7 mph - - -
2:30 6 7 mph 1015.6mb 67f 60f
2:24 5 7 mph 1015.6mb 67f 61f
2:18 5 7 mph - - -
2:12 3 6 mph 1015.7mb 67f 61f
2:06 6 6 mph 1015.7mb 67f 61f
2:00 6 8 mph 1015.7mb 67f 62f
1:54 6 9 mph 1015.6mb 68f 62f
1:48 7 10 mph 1015.6mb 68f 62f
1:42 7 8 mph 1015.7mb - -
1:36 7 8 mph 1015.8mb - -
1:30 7 9 mph 1015.8mb 68f 62f
1:24 6 10 mph 1015.9mb 68f 62f
1:18 7 9 mph - - -
1:12 8 10 mph 1015.9mb 68f 63f
1:06 8 10 mph 1015.9mb 68f 63f
1:00 7 10 mph 1015.9mb 68f 64f
12:54 6 10 mph 1016mb 68f 64f
12:48 7 10 mph - - -
12:42 7 10 mph 1016.1mb 68f 64f
12:36 7 10 mph 1016.1mb 68f 64f
12:30 6 10 mph 1016.1mb 68f 64f
12:24 6 10 mph 1016mb 68f 65f
12:18 6 9 mph 1016mb 68f 65f
12:12 7 10 mph 1016.1mb 68f 65f
12:06 6 6 mph 1016mb 68f 65f
12:00 5 7 mph 1016mb 68f 64f
mar. 06/27 11:54 6 8 mph 1015.9mb 68f 65f
11:48 5 7 mph 1015.8mb - -
11:42 3 7 mph 1015.8mb 68f 65f
11:36 6 8 mph 1015.7mb 68f 66f
11:30 2 3 mph 1015.6mb 68f 65f
11:24 3 3 mph 1015.6mb 68f 66f
11:18 1 3 mph 1015.5mb 68f 66f
11:12 2 3 mph 1015.5mb 68f 66f
11:06 2 3 mph 1015.4mb 69f 66f
11:00 2 5 mph 1015.4mb 69f 66f
10:54 3 3 mph 1015.2mb 69f 66f
10:48 2 5 mph - - -
10:42 3 5 mph 1015.2mb 70f 66f
10:36 3 6 mph 1015.1mb 70f 66f
10:30 3 5 mph 1015mb 70f 66f
10:24 5 6 mph 1015mb 70f 66f
10:18 5 7 mph 1014.9mb - -
10:12 7 9 mph 1014.8mb 70f 67f
10:06 6 8 mph 1014.8mb 70f 67f
10:00 7 10 mph 1014.8mb 70f 67f
9:54 9 10 mph 1014.8mb 70f 67f
9:48 6 7 mph 1014.8mb - -
9:42 7 9 mph 1014.8mb 70f 68f
9:36 7 9 mph 1014.8mb 70f 69f
9:30 7 10 mph 1014.7mb 70f 69f
9:24 9 14 mph 1014.6mb 70f 69f
9:18 10 14 mph 1014.6mb - -
9:12 6 13 mph 1014.6mb 70f 69f
9:06 8 11 mph 1014.5mb 70f 69f
9:00 9 13 mph 1014.4mb 70f 69f
8:54 9 13 mph 1014.3mb 70f 69f
8:48 11 13 mph 1014mb - -
8:42 11 14 mph 1013.8mb 70f 69f
8:36 11 14 mph 1013.7mb 70f 69f
8:30 11 14 mph 1013.6mb 70f 69f
8:24 13 14 mph 1013.5mb 70f 69f
8:18 10 14 mph - - -
8:12 9 13 mph 1013.5mb 70f 69f
8:06 10 11 mph 1013.4mb 70f 69f
8:00 11 15 mph 1013.4mb 70f 69f
7:54 11 14 mph 1013.5mb 70f 69f
7:48 13 16 mph 1013.4mb - -
7:42 14 17 mph 1013.3mb 70f 69f
7:36 15 18 mph 1013.3mb 70f 69f
7:30 16 18 mph 1013.1mb 70f 68f
7:24 16 20 mph 1013mb 70f 69f
7:18 18 21 mph 1012.9mb 70f 70f
7:12 17 21 mph 1012.9mb 70f 70f
7:06 18 23 mph 1013mb 70f 70f
7:00 16 22 mph 1013mb 70f 70f
6:54 17 21 mph 1013.1mb 70f 70f
6:48 20 23 mph 1013.2mb - -
6:42 18 23 mph 1013.2mb 70f 70f
6:36 18 22 mph 1013.2mb 70f 70f
6:30 21 22 mph 1013.2mb 70f 70f
6:24 18 22 mph 1013.2mb 70f 70f
6:18 20 25 mph 1013.2mb - -
6:12 21 24 mph 1013.2mb 70f 71f
6:06 21 25 mph 1013.2mb 70f 71f
6:00 22 25 mph 1013.2mb 70f 71f
5:54 21 23 mph 1013.3mb 70f 71f
5:48 20 24 mph 1013.5mb - -
5:42 22 26 mph 1013.4mb 70f 71f
5:36 23 28 mph 1013.4mb 70f 71f
5:30 22 28 mph 1013.4mb 70f 71f
5:24 20 25 mph 1013.4mb 70f 71f
5:18 22 25 mph - - -
5:12 23 30 mph 1013.4mb 70f 71f
5:06 23 29 mph 1013.3mb 70f 71f
5:00 23 30 mph 1013.5mb 70f 71f
4:54 17 25 mph 1013.7mb 70f 71f
4:48 20 24 mph - - -
4:42 20 23 mph 1013.7mb 70f 70f
4:36 20 23 mph 1013.7mb 70f 70f
4:30 22 26 mph 1013.7mb 70f 70f
4:24 23 26 mph 1013.6mb 70f 70f
4:18 22 26 mph 1013.6mb 70f 70f
4:12 20 22 mph 1013.6mb 70f 70f
4:06 20 21 mph 1013.7mb 70f 69f
4:00 18 22 mph 1013.7mb 70f 70f
3:54 20 22 mph 1013.8mb 70f 70f
3:48 18 23 mph - - -
3:42 20 24 mph 1014mb 70f 70f
3:36 21 23 mph 1014.1mb 70f 70f
3:30 21 24 mph 1014.2mb 70f 69f
3:24 21 24 mph 1014.3mb 70f 70f
3:18 21 24 mph - - -
3:12 21 25 mph 1014.5mb 70f 70f
3:06 18 22 mph 1014.6mb 69f 69f
3:00 20 23 mph 1014.7mb 69f -
2:54 18 24 mph 1014.9mb 69f 68f
2:48 22 23 mph - - -
2:42 21 24 mph 1015.1mb 68f 68f
2:36 18 22 mph 1015.2mb 68f 68f
2:30 18 21 mph 1015.3mb 68f 68f
2:24 18 21 mph 1015.4mb 68f 68f
2:18 18 21 mph 1015.5mb 68f 68f
2:12 16 18 mph 1015.6mb 68f 68f
2:06 17 18 mph 1015.6mb 68f 67f
2:00 14 17 mph 1015.7mb 68f 67f
1:54 15 17 mph 1015.8mb 68f 67f
1:48 14 16 mph - - -
1:42 15 17 mph 1015.7mb 68f 67f
1:36 15 17 mph 1015.9mb 68f 67f
1:30 15 16 mph 1015.9mb 68f 67f
1:24 11 14 mph 1016mb 68f 68f
1:18 10 13 mph - - -
1:12 10 11 mph 1015.9mb 68f 68f
1:06 8 10 mph 1015.8mb 68f 68f
1:00 8 10 mph 1015.7mb 68f 68f
12:54 8 10 mph 1015.8mb 68f 66f
12:48 8 10 mph - - -
12:42 9 10 mph 1016mb 69f 67f
12:36 10 11 mph 1016.1mb 69f 67f
12:30 6 8 mph 1016.3mb 69f 67f
12:24 8 10 mph 1016.5mb 69f 67f
12:18 8 8 mph 1016.3mb 69f 67f
12:12 6 9 mph 1016.2mb 69f 67f
12:06 8 10 mph 1015.8mb 69f 68f
12:00 8 10 mph 1015.6mb 69f 68f
11:54 6 8 mph 1015.5mb 69f 68f
11:48 7 8 mph - - -
11:42 6 9 mph 1015.8mb 69f 68f
11:36 7 10 mph 1015.8mb 69f 68f
11:30 10 13 mph 1016.2mb 69f 68f
11:24 10 15 mph 1016mb 69f 67f
11:18 14 16 mph 1016mb 69f 67f
11:12 15 16 mph 1016.3mb 69f 67f
11:06 7 8 mph 1016.9mb 69f 68f
11:00 6 6 mph 1016.9mb 69f 68f
10:54 3 5 mph 1016.9mb 69f 68f
10:48 3 6 mph - - -
10:42 6 13 mph 1017.1mb 69f 68f
10:36 9 13 mph 1017.2mb 69f 68f
10:30 8 9 mph 1017.1mb 69f 68f
10:24 6 10 mph 1017mb 69f 68f
10:18 2 3 mph 1016.9mb 70f 68f
10:12 1 2 mph 1016.7mb 70f 68f
10:06 2 3 mph 1016.7mb 70f 68f
10:00 2 3 mph 1016.6mb 70f 67f
9:54 2 2 mph 1016.7mb 70f 67f
9:48 3 6 mph - - -
9:42 5 6 mph 1016.9mb 69f 67f
9:36 5 6 mph 1016.9mb 69f 67f
9:30 3 6 mph 1016.9mb 69f 67f
9:24 6 7 mph 1016.9mb 69f 67f
9:18 7 7 mph - - -
9:12 5 6 mph 1016.6mb 69f 66f
9:06 5 5 mph 1016.6mb 69f 66f
9:00 5 6 mph 1016.5mb 69f 66f
8:54 5 6 mph 1016.5mb 69f 66f
8:48 6 7 mph - - -
8:42 7 8 mph 1016.5mb 69f 66f
8:36 7 7 mph 1016.5mb 69f 65f
8:30 6 7 mph 1016.7mb 69f 65f
8:24 7 7 mph 1016.8mb 69f 65f
8:18 6 8 mph 1016.7mb 69f 65f
8:12 7 8 mph 1016.8mb 69f 65f
8:06 7 9 mph 1016.8mb 69f 65f
8:00 7 8 mph 1016.8mb 69f 65f
7:54 7 8 mph 1016.7mb 69f 64f
7:48 6 8 mph 1016.7mb 69f 64f
7:42 6 7 mph 1016.7mb 69f 64f
7:36 5 6 mph 1016.6mb 69f 64f
7:30 5 5 mph 1016.6mb 69f 65f
7:24 2 3 mph 1016.7mb 69f 65f
7:18 3 5 mph - - -
7:12 2 3 mph 1016.6mb 69f 66f
7:06 2 5 mph 1016.7mb 69f 67f
7:00 3 5 mph 1016.6mb 69f 66f
6:54 3 5 mph 1016.7mb 69f 65f
6:48 3 5 mph - - -
6:42 3 3 mph 1016.5mb 69f 65f
6:36 3 3 mph 1016.4mb 69f 65f
6:30 3 3 mph 1016.5mb 69f 65f
6:24 2 5 mph 1016.6mb 69f 65f
6:18 3 5 mph 1016.6mb 69f 65f
6:12 2 6 mph 1016.6mb 69f 64f
6:06 2 2 mph 1016.4mb 69f 65f
6:00 1 2 mph 1016.3mb 69f 64f
5:54 1 1 mph 1016.4mb 69f 64f
5:48 1 2 mph - - -
5:42 2 5 mph 1016.3mb 68f 64f
5:36 3 5 mph 1016.4mb 68f 63f
5:30 3 5 mph 1016.3mb 68f 63f
5:24 3 5 mph 1016.2mb 68f 62f
5:18 3 3 mph - - -
5:12 2 6 mph 1016.2mb 68f 62f
5:06 6 6 mph 1016.2mb 68f 62f
5:00 6 6 mph 1016.3mb 68f 62f
4:54 7 11 mph 1016.2mb 68f 62f
4:48 8 10 mph - - -
4:42 6 14 mph 1016.2mb 68f 62f
4:36 7 10 mph 1016.2mb 68f 62f
4:30 2 2 mph 1016mb 68f 64f
4:24 1 3 mph 1016mb 68f 64f
4:18 1 3 mph - - -
4:12 2 3 mph 1015.9mb 69f 64f
4:06 3 5 mph 1015.9mb 69f 64f
4:00 3 3 mph 1016mb 69f 64f
3:54 3 3 mph 1016.1mb 69f 64f
3:48 3 5 mph - - -
3:42 3 3 mph 1016mb 69f 64f
3:36 3 3 mph 1016mb 69f 64f
3:30 2 2 mph 1016mb 69f 64f
3:24 2 3 mph 1016mb 69f 64f
3:18 2 3 mph - - -
3:12 3 3 mph 1015.9mb 69f 64f
3:06 2 2 mph 1015.9mb 69f 64f
3:00 1 3 mph 1015.9mb 69f 65f
2:54 2 2 mph 1015.9mb 69f 65f
2:48 1 6 mph - - -
2:42 5 6 mph 1015.9mb 69f 65f
2:36 3 6 mph 1015.9mb 69f 65f
2:30 2 7 mph 1015.9mb 69f 65f
2:24 5 7 mph 1015.9mb 69f 64f
2:18 5 7 mph 1015.8mb 69f 65f
2:12 6 8 mph 1015.6mb 69f 65f
2:06 9 10 mph 1015.5mb 69f 65f
2:00 9 10 mph 1015.5mb 69f 66f
1:54 9 11 mph 1015.6mb 68f 66f
1:48 9 10 mph - - -
1:42 8 11 mph 1015.6mb 68f 66f
1:36 9 11 mph 1015.7mb 68f 65f
1:30 10 11 mph 1015.8mb 67f 65f
1:24 9 11 mph 1015.9mb 67f 65f
1:18 9 11 mph - - -
1:12 10 11 mph 1016mb 68f 66f
1:06 10 11 mph 1016mb 68f 66f
1:00 10 11 mph 1016.1mb 68f 66f
12:54 10 13 mph 1016.1mb 68f 66f
12:48 10 11 mph - - -
12:42 10 13 mph 1016.2mb 68f 66f
12:36 9 11 mph 1016.2mb 68f 66f
12:30 11 13 mph 1016.1mb 68f 66f
12:24 9 10 mph 1016.1mb 68f 66f
12:18 10 11 mph 1016.2mb 68f 66f
12:12 8 10 mph 1016.2mb 68f 66f
12:06 9 11 mph 1016.2mb 68f 66f
12:00 8 10 mph 1016.2mb 68f 66f
lun. 06/26 11:54 9 11 mph 1016.2mb 68f 66f
11:48 10 11 mph - - -
11:42 9 11 mph 1016.3mb 68f 66f
11:36 9 10 mph 1016.3mb 68f 66f
11:30 8 10 mph 1016.2mb 68f 66f
11:24 7 9 mph 1016.2mb 68f 66f
11:18 7 9 mph - - -
11:12 7 9 mph 1016.1mb 69f 66f
11:06 6 8 mph 1016.1mb 69f 66f
11:00 7 7 mph 1016.1mb 69f 66f
10:54 7 8 mph 1016.1mb 69f 66f
10:48 7 10 mph - - -
10:42 8 10 mph 1016.1mb 69f 67f
10:36 8 9 mph 1016mb 70f 67f
10:30 8 11 mph 1016mb 70f 67f
10:24 8 10 mph 1016mb 71f 67f
10:18 8 9 mph 1016mb - -
10:12 9 10 mph 1016mb 71f 67f
10:06 10 11 mph 1016mb 71f 67f
10:00 11 14 mph 1015.9mb 71f 67f
9:54 11 14 mph 1015.8mb 71f 67f
9:48 11 14 mph 1015.8mb - -
9:42 13 14 mph 1015.8mb 71f 68f
9:36 11 14 mph 1015.8mb 71f 67f
9:30 10 13 mph 1015.8mb 71f 68f
9:24 11 13 mph 1015.7mb 71f 68f
9:18 11 15 mph 1015.7mb - -
9:12 13 16 mph 1015.7mb 71f 68f
9:06 13 15 mph 1015.7mb 71f 69f
9:00 14 16 mph 1015.6mb 71f 69f
8:54 14 16 mph 1015.6mb 71f 69f
8:48 15 18 mph 1015.5mb - -
8:42 14 16 mph 1015.5mb 71f 69f
8:36 15 16 mph 1015.4mb 71f 70f
8:30 11 15 mph 1015.4mb 71f 70f
8:24 11 14 mph 1015.4mb 71f 70f
8:18 11 14 mph - - -
8:12 13 15 mph 1015.3mb 71f 70f
8:06 14 16 mph 1015.3mb 71f 71f
8:00 15 16 mph 1015.3mb 71f 71f
7:54 14 16 mph 1015.3mb 71f 71f
7:48 14 16 mph 1015.3mb - -
7:42 13 15 mph 1015.3mb 71f 72f
7:36 14 16 mph 1015.3mb 71f 72f
7:30 11 14 mph 1015.3mb 71f 72f
7:24 14 17 mph 1015.2mb 71f 72f
7:18 16 17 mph 1015.2mb - -
7:12 16 18 mph 1015.2mb 71f 73f
7:06 17 20 mph 1015.2mb 71f 72f
7:00 16 20 mph 1015.1mb 71f 73f
6:54 15 21 mph 1015.1mb 71f 73f
6:48 17 22 mph 1015.1mb - -
6:42 17 22 mph 1015mb 71f 73f
6:36 18 21 mph 1015mb 71f 73f
6:30 18 21 mph 1014.9mb 71f 73f
6:24 20 22 mph 1014.9mb 71f 73f
6:18 16 20 mph - - -
6:12 15 17 mph 1014.8mb 71f 73f
6:06 15 20 mph 1014.8mb 71f 73f
6:00 14 21 mph 1014.8mb 71f 73f
5:54 17 21 mph 1014.7mb 71f 73f
5:48 16 21 mph 1014.8mb 71f 73f
5:42 21 23 mph 1014.8mb 71f 73f
5:36 21 23 mph 1014.7mb 71f 73f
5:30 16 23 mph 1014.7mb 71f 73f
5:24 18 22 mph 1014.7mb 71f 73f
5:18 15 18 mph 1014.8mb 71f 73f
5:12 14 18 mph 1014.9mb 71f 73f
5:06 17 20 mph 1014.9mb 71f 73f
5:00 16 23 mph 1014.9mb 71f 73f
4:54 17 22 mph 1014.9mb 71f 73f
4:48 17 22 mph - - -
4:42 18 22 mph 1014.8mb 71f 73f
4:36 16 25 mph 1014.9mb 71f 73f
4:30 18 23 mph 1014.9mb 71f -
4:24 21 23 mph 1014.9mb 71f 73f
4:18 21 23 mph - - -
4:12 20 23 mph 1014.9mb 71f 73f
4:06 21 23 mph 1014.9mb 70f 73f
4:00 21 23 mph 1014.9mb 70f 73f
3:54 22 25 mph 1014.8mb 70f 73f
3:48 22 24 mph - - -
3:42 21 25 mph 1015mb 70f 72f
3:36 22 24 mph 1015mb 70f 72f
3:30 20 23 mph 1015mb 70f 73f
3:24 20 23 mph 1015mb 70f 73f
3:18 18 24 mph - - -
3:12 21 23 mph 1014.9mb 71f 72f
3:06 22 24 mph 1014.9mb 71f 73f
3:00 21 23 mph 1015mb 71f 73f
2:54 20 24 mph 1015mb 71f 73f
2:48 17 22 mph 1014.9mb 71f 73f
2:42 16 18 mph 1015mb 71f 73f
2:36 11 15 mph 1015.1mb 70f 74f
2:24 16 20 mph 1015.1mb 70f 73f
2:18 17 20 mph - - -
2:12 14 18 mph 1015.1mb 69f 74f
2:06 14 22 mph 1015.1mb 69f 74f
2:00 8 9 mph 1015.2mb 69f 75f
1:54 8 10 mph 1015.1mb 69f 75f
1:48 7 13 mph 1015.2mb 69f 77f
1:42 7 11 mph 1015.2mb 68f 74f
1:36 10 14 mph 1015.3mb 68f 75f
1:30 3 7 mph 1015.3mb 68f 74f
1:24 2 8 mph 1015.4mb 68f 73f
1:18 8 10 mph - - -
1:12 7 9 mph 1015.5mb 68f 74f
1:06 6 14 mph 1015.6mb 68f 74f
1:00 10 14 mph 1015.6mb 68f 75f
12:54 7 14 mph 1015.7mb 68f 75f
12:48 10 13 mph - - -
12:42 5 8 mph 1015.8mb 68f 74f
12:36 7 14 mph 1015.8mb 69f 74f
12:30 9 14 mph 1015.8mb 68f 75f
12:24 5 10 mph 1015.8mb 68f 73f
12:18 8 10 mph 1015.9mb 68f 74f
12:12 5 10 mph 1015.9mb 68f 74f
12:06 5 7 mph 1015.9mb 68f 74f
12:00 3 5 mph 1016mb 68f 74f
11:54 6 13 mph 1016mb 68f 73f
11:48 13 15 mph - - -
11:42 7 11 mph 1016mb 68f 74f
11:36 7 11 mph 1016mb 68f 74f
11:30 8 13 mph 1016mb 68f 73f
11:24 11 15 mph 1016mb 68f 73f
11:18 7 8 mph - - -
11:12 5 9 mph 1016.1mb 68f 73f
11:06 8 11 mph 1016.1mb 69f 72f
11:00 6 9 mph 1016.2mb 69f 72f
10:54 9 11 mph 1016.1mb 69f 71f
10:48 10 13 mph - - -
10:42 6 9 mph 1016.2mb 69f 71f
10:36 7 10 mph 1016.2mb 69f 71f
10:30 10 14 mph 1016.2mb 69f 71f
10:24 6 9 mph 1016.3mb 69f 71f
10:18 5 9 mph - - -
10:12 9 11 mph 1016.4mb 69f 71f
10:06 3 7 mph 1016.4mb 69f 71f
10:00 7 14 mph 1016.4mb 69f 71f
9:54 8 13 mph 1016.3mb 69f 71f
9:48 9 14 mph - - -
9:42 8 14 mph 1016.4mb 69f 70f
9:36 8 14 mph 1016.4mb 69f 71f
9:30 8 11 mph 1016.4mb 69f 71f
9:24 8 14 mph 1016.4mb 69f 71f
9:18 9 13 mph - - -
9:12 8 14 mph 1016.1mb 69f 70f
9:06 7 10 mph 1016.2mb 69f 70f
9:00 9 13 mph 1016.3mb 69f 69f
8:54 10 14 mph 1016.3mb 69f 69f
8:48 8 13 mph - - -
8:42 8 11 mph 1016.2mb 69f 69f
8:36 7 13 mph 1016.2mb 69f 69f
8:30 7 13 mph 1016.2mb 69f 69f
8:24 6 9 mph 1016.2mb 69f 69f
8:18 7 10 mph 1016.1mb 69f 69f
8:12 9 11 mph 1016.1mb 69f 68f
8:06 9 14 mph 1016.1mb 69f 68f
8:00 9 13 mph 1016mb 69f 68f
7:54 9 11 mph 1016mb 69f 68f
7:48 8 13 mph - - -
7:42 9 13 mph 1015.9mb 69f 67f
7:36 9 13 mph 1015.9mb 69f 67f
7:30 8 13 mph 1015.9mb 69f 67f
7:24 9 11 mph 1015.9mb 69f 67f
7:18 9 13 mph - - -
7:12 9 13 mph 1015.8mb 69f 66f
7:06 7 10 mph 1015.8mb 69f 66f
7:00 6 9 mph 1015.8mb 69f 66f
6:54 5 8 mph 1015.8mb 69f 66f
6:48 8 11 mph - - -
6:42 6 9 mph 1015.7mb 70f 66f
6:36 7 11 mph 1015.7mb 70f 65f
6:30 8 11 mph 1015.7mb 70f 65f
6:24 8 13 mph 1015.7mb 70f 65f
6:18 8 13 mph - - -
6:12 6 8 mph 1015.7mb 70f 65f
6:06 6 10 mph 1015.6mb 70f 65f
6:00 6 9 mph 1015.6mb 70f 65f
5:54 5 8 mph 1015.5mb 70f 64f
5:48 6 7 mph - - -
5:42 7 7 mph 1015.4mb 70f 62f
5:36 7 8 mph 1015.2mb 69f 63f
5:30 7 8 mph 1015.1mb 69f 63f
5:24 7 7 mph 1015mb 69f 63f
5:18 6 7 mph - - -
5:12 6 7 mph 1014.8mb 69f 64f
5:06 6 7 mph 1014.8mb 69f 64f
5:00 6 7 mph 1014.7mb 69f 65f
4:54 6 7 mph 1014.5mb 69f 64f
4:48 6 6 mph - - -
4:42 5 6 mph 1014.3mb 69f 64f
4:36 5 6 mph 1014.3mb 69f 65f
4:30 6 7 mph 1014.3mb 68f 65f
4:24 3 6 mph 1014.1mb 68f 65f
4:18 3 6 mph 1014mb 68f 65f
4:12 5 7 mph 1014mb 68f 65f
4:06 5 7 mph 1014mb 68f 65f
4:00 6 8 mph 1014mb 68f 65f
3:54 7 10 mph 1014mb 67f 65f
3:48 7 10 mph - - -
3:42 8 10 mph 1014mb 67f 65f
3:36 8 14 mph 1014.1mb 68f 66f
3:30 10 13 mph 1014.1mb 68f 65f
3:24 9 13 mph 1014.1mb 68f 65f
3:18 8 10 mph 1014.2mb 68f 66f
3:12 9 11 mph 1014.2mb 68f 66f
3:06 7 10 mph 1014.2mb 68f 66f
3:00 6 9 mph 1014.2mb 68f 66f
2:54 6 8 mph 1014.3mb 69f 66f
2:48 5 7 mph 1014.3mb 69f 65f
2:42 6 7 mph 1014.2mb - -
2:36 6 8 mph 1014.2mb - -
2:30 7 9 mph 1014.3mb 69f 66f
2:24 6 8 mph 1014.3mb 68f 66f
2:18 6 8 mph 1014.3mb 69f 66f
2:12 6 7 mph 1014.4mb 69f 66f
2:06 6 6 mph 1014.3mb 69f 66f
2:00 3 6 mph 1014.2mb 69f 66f
1:54 5 6 mph 1014.2mb 69f 67f
1:48 5 6 mph 1014.2mb 69f 67f
1:42 5 6 mph 1014.3mb 68f 67f
1:36 3 7 mph 1014.2mb 68f 67f
1:30 6 6 mph 1014.4mb 68f 67f
1:24 5 6 mph 1014.4mb 68f 67f
1:18 5 7 mph 1014.4mb 68f 67f
1:12 6 7 mph 1014.5mb 68f 67f
1:06 6 7 mph 1014.5mb 68f 68f
1:00 6 7 mph 1014.3mb 68f 68f
12:54 6 7 mph 1014.2mb 68f 68f
12:48 5 8 mph 1014.1mb 68f 68f
12:42 6 8 mph 1014.2mb 68f 69f
12:36 6 8 mph 1014.2mb 68f 69f
12:30 5 7 mph 1014.1mb 68f 69f
12:24 6 7 mph 1014.1mb 68f 69f
12:18 6 8 mph 1014.1mb 68f 69f
12:12 8 11 mph 1014.2mb 68f 69f
12:06 5 13 mph 1014.2mb 68f 69f
12:00 10 13 mph 1014.3mb 68f 69f
dim. 06/25 11:54 3 13 mph 1014mb 68f 68f
11:48 10 14 mph 1014.3mb - -
11:42 9 14 mph 1013.9mb 68f 68f
11:36 11 15 mph 1013.7mb 68f 68f
11:30 13 15 mph 1013.7mb 68f -
11:24 13 14 mph 1013.7mb 68f 69f
11:18 11 14 mph 1013.7mb 68f 69f
11:12 11 14 mph 1013.6mb 68f 69f
11:06 13 14 mph 1013.6mb 68f 69f
11:00 13 15 mph 1013.7mb 68f 69f
10:54 14 15 mph 1013.8mb 68f 69f
10:48 14 16 mph 1013.8mb 68f 69f
10:42 14 16 mph 1013.8mb 68f 69f
10:36 14 16 mph 1013.8mb 68f 70f
10:30 15 17 mph 1013.8mb 68f 70f
10:24 14 17 mph 1013.8mb 68f 70f
10:18 14 17 mph - - -
10:12 14 16 mph 1013.8mb 68f 70f
10:06 15 18 mph 1013.9mb 68f 70f
10:00 15 17 mph 1013.9mb 69f 70f
9:54 15 20 mph 1014mb 69f 70f
9:48 16 20 mph 1014mb - -
9:42 14 18 mph 1014mb 69f 71f
9:36 16 18 mph 1013.8mb 69f 71f
9:30 15 17 mph 1013.7mb 69f 70f
9:24 15 16 mph 1013.7mb 69f 70f
9:18 14 16 mph 1013.7mb - -
9:12 14 16 mph 1013.6mb 71f 71f
9:06 13 16 mph 1013.6mb 71f 71f
9:00 15 17 mph 1013.6mb 71f 71f
8:54 14 16 mph 1013.6mb 71f 71f
8:48 13 15 mph 1013.5mb - -
8:42 15 17 mph 1013.5mb 72f 72f
8:36 14 17 mph 1013.6mb 72f 72f
8:30 14 17 mph 1013.6mb 72f 72f
8:24 14 16 mph 1013.6mb 72f 73f
8:18 10 14 mph 1013.7mb - -
8:12 13 17 mph 1013.6mb 73f 73f
8:06 14 17 mph 1013.6mb 73f 73f
8:00 15 17 mph 1013.6mb 73f 74f
7:54 13 15 mph 1013.6mb 73f 74f
7:48 13 15 mph 1013.6mb - -
7:42 11 14 mph 1013.6mb 73f 74f
7:36 9 13 mph 1013.6mb 73f 74f
7:30 10 11 mph 1013.5mb 73f 75f
7:24 10 13 mph 1013.5mb 73f 75f
7:12 9 13 mph 1013.5mb 73f 75f
7:06 10 13 mph 1013.4mb 73f 76f
7:00 10 11 mph 1013.4mb 72f 75f
6:54 6 14 mph 1013.3mb 72f 76f
6:48 8 10 mph 1013.4mb - -
6:42 7 11 mph 1013.3mb 72f 75f
6:36 8 10 mph 1013.3mb 72f 75f
6:30 8 9 mph 1013.2mb 72f 75f
6:24 8 10 mph 1013.3mb 72f 75f
6:18 10 13 mph 1013.3mb - -
6:12 11 14 mph 1013.3mb 72f 75f
6:06 11 16 mph 1013.2mb 72f 75f
6:00 15 21 mph 1013.2mb 72f 75f
5:54 17 20 mph 1013.1mb 72f 75f
5:48 16 21 mph 1013.1mb - -
5:42 20 24 mph 1013mb 72f 75f
5:36 18 25 mph 1012.9mb 73f 75f
5:30 20 24 mph 1012.7mb 73f 75f
5:24 22 25 mph 1012.6mb 72f 75f
5:18 21 24 mph - - -
5:12 20 29 mph 1012.6mb 73f 76f
5:06 24 28 mph 1012.5mb 73f 76f
5:00 22 24 mph 1012.6mb 73f 76f
4:54 20 23 mph 1012.5mb 73f 76f
4:48 22 26 mph - - -
4:42 22 28 mph 1012.5mb 73f 76f
4:36 22 26 mph 1012.4mb 72f 76f
4:30 23 26 mph 1012.5mb 72f 76f
4:24 22 28 mph 1012.4mb 72f 76f
4:18 22 26 mph 1012.5mb 72f 76f
4:12 22 25 mph 1012.5mb 72f 76f
4:06 22 26 mph 1012.5mb 72f 77f
4:00 22 26 mph 1012.6mb 72f 77f
3:54 21 25 mph 1012.5mb 72f 77f
3:48 20 23 mph 1012.6mb 72f 77f
3:42 22 25 mph 1012.5mb 72f 78f
3:36 22 25 mph 1012.5mb 72f 78f
3:30 18 23 mph 1012.6mb 72f 77f
3:24 21 24 mph 1012.6mb 72f 78f
3:18 21 23 mph - - -
3:12 20 24 mph 1012.8mb 72f 78f
3:06 22 24 mph 1012.7mb 72f 78f
3:00 21 22 mph 1012.8mb 72f 78f
2:54 18 24 mph 1012.9mb 72f 77f
2:48 21 23 mph - - -
2:42 16 21 mph 1013mb 72f 78f
2:36 16 21 mph 1013.1mb 72f 77f
2:30 16 22 mph 1013.2mb 72f 78f
2:24 17 21 mph 1013.2mb 72f 77f
2:18 20 21 mph - - -
2:12 16 17 mph 1013.3mb 71f 78f
2:06 15 20 mph 1013.4mb 71f 76f
2:00 20 23 mph 1013.4mb 71f 77f
1:54 18 20 mph 1013.4mb 71f 77f
1:48 18 22 mph - - -
1:42 17 21 mph 1013.5mb 71f 74f
1:36 17 20 mph 1013.5mb 71f 74f
1:30 16 18 mph 1013.6mb 70f 74f
1:24 15 20 mph 1013.6mb 70f 73f
1:18 15 17 mph - - -
1:12 15 18 mph 1013.9mb 68f 73f
1:06 14 17 mph 1013.9mb 68f 74f
1:00 17 20 mph 1014mb 68f 74f
12:54 17 20 mph 1014mb 68f 74f
12:48 16 18 mph - - -
12:42 16 18 mph 1014.2mb 68f 74f
12:36 15 17 mph 1014.2mb 67f 74f
12:30 16 18 mph 1014.3mb 67f 73f
12:24 16 18 mph 1014.3mb 68f 74f
12:18 13 14 mph 1014.3mb 68f 73f
12:12 13 14 mph 1014.4mb 68f 73f
12:06 13 14 mph 1014.4mb 67f 73f
12:00 11 14 mph 1014.4mb 67f -
11:54 9 11 mph 1014.4mb 67f 73f
11:48 9 10 mph - - -
11:42 9 9 mph 1014.5mb 67f 74f
11:36 9 10 mph 1014.6mb 67f 74f
11:30 8 8 mph 1014.6mb 68f 73f
11:24 8 8 mph 1014.6mb 68f 74f
11:18 8 8 mph 1014.6mb 68f 73f
11:12 8 8 mph 1014.6mb 68f 73f
11:06 8 8 mph 1014.6mb 68f 73f
11:00 8 8 mph 1014.6mb 68f 73f
10:54 7 8 mph 1014.7mb 68f 73f
10:48 7 8 mph 1014.8mb 69f 73f
10:42 7 8 mph 1014.8mb 69f 73f
10:36 7 9 mph 1014.9mb 69f 73f
10:30 7 7 mph 1014.9mb 69f 72f
10:24 6 7 mph 1015mb 69f 72f
10:18 6 7 mph - - -
10:12 3 5 mph 1014.9mb 69f 74f
10:06 3 5 mph 1015mb 69f 73f
10:00 5 5 mph 1015mb 69f 73f
9:54 5 6 mph 1015mb 69f 73f
9:48 6 7 mph - - -
9:42 6 7 mph 1014.9mb 69f 72f
9:36 6 7 mph 1015mb 69f 72f
9:30 5 6 mph 1015mb 69f 72f
9:24 6 7 mph 1015mb 69f 72f
9:18 3 5 mph 1014.9mb 69f 74f
9:12 1 6 mph 1014.9mb 69f 76f
9:06 2 7 mph 1014.9mb 69f 75f
9:00 5 8 mph 1014.9mb 69f 74f
8:54 5 7 mph 1015mb 70f 74f
8:48 3 7 mph - - -
8:42 5 7 mph 1015.1mb 70f 73f
8:36 7 8 mph 1015.1mb 69f 73f
8:30 6 6 mph 1015.1mb 69f 72f
8:24 5 7 mph 1015.1mb 69f 71f
8:18 5 6 mph 1015mb 69f 71f
8:12 5 6 mph 1015mb 69f 71f
8:06 6 7 mph 1015.1mb 69f 70f
8:00 6 8 mph 1015.1mb 69f 70f
7:54 7 8 mph 1015.1mb 69f 70f
7:48 8 8 mph - - -
7:42 6 7 mph 1014.9mb 69f 70f
7:36 7 8 mph 1014.8mb 69f 69f
7:30 7 9 mph 1014.8mb 69f 69f
7:24 8 9 mph 1014.8mb 69f 69f
7:18 8 8 mph - - -
7:12 6 7 mph 1014.7mb 69f 69f
7:06 7 7 mph 1014.7mb 69f 68f
7:00 6 7 mph 1014.6mb 69f 68f
6:54 6 7 mph 1014.5mb 69f 67f
6:48 7 7 mph 1014.5mb 69f 67f
6:42 7 8 mph 1014.5mb 69f 67f
6:36 7 8 mph 1014.4mb 69f 66f
6:30 7 8 mph 1014.3mb 69f 66f
6:24 6 7 mph 1014.2mb 69f 67f
6:18 5 6 mph 1014mb 69f 67f
6:12 5 6 mph 1013.9mb 69f 67f
6:06 5 6 mph 1013.9mb 69f 67f
6:00 5 6 mph 1013.8mb 69f 67f
5:54 5 6 mph 1013.7mb 69f 67f
5:48 6 6 mph - - -
5:42 5 5 mph 1013.7mb 69f 66f
5:36 3 5 mph 1013.6mb 69f 66f
5:30 5 5 mph 1013.6mb 69f 66f
5:24 2 3 mph 1013.6mb 69f 67f
5:18 3 6 mph - - -
5:12 2 5 mph 1013.5mb 69f 67f
5:06 5 6 mph 1013.4mb 69f 67f
5:00 5 5 mph 1013.3mb 69f 66f
4:54 5 5 mph 1013.2mb 69f 67f
4:48 5 5 mph - - -
4:42 5 5 mph 1013.1mb 69f 67f
4:36 3 3 mph 1013.1mb 69f 67f
4:30 2 2 mph 1012.9mb 69f 67f
4:24 2 2 mph 1012.8mb 69f 67f
4:18 2 3 mph 1012.8mb 69f 68f
4:12 3 6 mph 1012.7mb 69f 68f
4:06 3 7 mph 1012.7mb 68f 69f
4:00 5 7 mph 1012.6mb 68f 69f
3:54 5 8 mph 1012.5mb 68f 69f
3:48 7 9 mph - - -
3:42 6 8 mph 1012.3mb 68f 69f
3:36 7 9 mph 1012.2mb 68f 69f
3:30 6 9 mph 1012.1mb 68f 69f
3:24 6 8 mph 1012.1mb 68f 69f
3:18 6 9 mph - - -
3:12 8 11 mph 1012.1mb 68f 69f
3:06 8 11 mph 1012.1mb 68f 69f
3:00 8 11 mph 1012.1mb 68f 69f
2:54 9 11 mph 1012.2mb 68f 69f
2:48 8 13 mph 1012.2mb 68f 70f
2:42 9 14 mph 1012.3mb 68f -
2:36 8 10 mph 1012.3mb 68f -
2:30 8 10 mph 1012.3mb 68f 70f
2:24 7 9 mph 1012.4mb 68f 71f
2:18 6 8 mph - - -
2:12 6 8 mph 1012.2mb 68f 71f
2:06 7 9 mph 1012.3mb 68f 71f
2:00 6 10 mph 1012.3mb 69f 71f
1:54 7 13 mph 1012.3mb 69f 71f
1:48 6 9 mph 1012.4mb 69f 72f
1:42 7 11 mph 1012.4mb - -
1:36 7 11 mph 1012.3mb - -
1:30 8 10 mph 1012.4mb 69f 70f
1:24 7 11 mph 1012.3mb 68f 70f
1:18 9 13 mph 1012.2mb 68f 70f
1:12 8 13 mph 1012mb 68f 69f
1:06 9 11 mph 1012mb 68f 69f
1:00 8 9 mph 1011.4mb 68f 68f
12:54 7 8 mph 1011.4mb 68f 68f
12:48 7 7 mph - - -
12:42 7 7 mph 1011.4mb 67f 68f
12:36 6 6 mph 1011.4mb 67f 68f
12:30 6 7 mph 1011.4mb 67f 68f
12:24 6 6 mph 1011.4mb 67f 68f
12:18 6 6 mph 1011.5mb 67f 69f
12:12 6 6 mph 1011.6mb 67f 69f
12:06 6 6 mph 1011.6mb 67f 69f
12:00 6 7 mph 1011.6mb 67f 69f
sam. 06/24 11:54 6 7 mph 1011.6mb 67f 69f
11:48 6 6 mph 1011.6mb 67f 69f
11:42 6 8 mph 1011.5mb 67f 69f
11:36 8 9 mph 1011.5mb 67f 69f
11:30 8 9 mph 1011.4mb 67f 69f
11:24 7 8 mph 1011.5mb 67f 69f
11:18 6 7 mph - - -
11:12 6 7 mph 1011.3mb 67f 69f
11:06 6 7 mph 1011.3mb 67f 70f
11:00 6 6 mph 1011.3mb 68f 70f
10:54 5 6 mph 1011.2mb 68f 70f
10:48 6 6 mph - - -
10:42 6 6 mph 1011.1mb 68f 70f
10:36 5 6 mph 1011mb 68f 70f
10:30 5 6 mph 1011mb 68f 70f
10:24 6 6 mph 1011mb 68f 70f
10:18 6 7 mph 1010.9mb 68f 71f
10:12 7 7 mph 1010.9mb 69f 71f
10:06 7 7 mph 1010.8mb 69f 71f
10:00 7 7 mph 1010.7mb 69f 71f
9:54 7 7 mph 1010.6mb 69f 72f
9:48 7 8 mph 1010.5mb - -
9:42 7 8 mph 1010.4mb 69f 72f
9:36 8 9 mph 1010.3mb 69f 73f
9:30 8 9 mph 1010.2mb 69f 73f
9:24 9 9 mph 1010mb 69f 74f
9:18 8 8 mph 1009.9mb - -
9:12 8 9 mph 1009.7mb 69f 74f
9:06 8 9 mph 1009.6mb 69f 74f
9:00 8 9 mph 1009.5mb 69f 74f
8:54 7 8 mph 1009.4mb 69f 75f
8:48 6 7 mph 1009.3mb - -
8:42 6 7 mph 1009.2mb 69f 73f
8:36 7 7 mph 1009.1mb 69f 74f
8:30 6 7 mph 1009mb 70f 75f
8:24 6 8 mph 1009mb 70f 76f
8:18 8 9 mph 1008.9mb - -
8:12 8 9 mph 1008.8mb 70f 77f
8:06 7 9 mph 1008.7mb 70f 78f
8:00 8 10 mph 1008.6mb 70f 78f
7:54 8 9 mph 1008.5mb 70f 78f
7:48 8 10 mph 1008.4mb - -
7:42 7 10 mph 1008.4mb 70f 81f
7:36 8 11 mph 1008.3mb 70f 81f
7:30 7 11 mph 1008.3mb 70f 81f
7:24 7 14 mph 1008.2mb 70f 81f
7:18 10 17 mph 1008.1mb - -
7:12 11 18 mph 1008mb 70f 82f
7:06 11 21 mph 1007.8mb 70f 82f
6:54 11 17 mph 1007.6mb 70f 82f
6:48 14 22 mph 1007.4mb - -
6:42 9 18 mph 1007.4mb 70f 82f
6:36 11 16 mph 1007.3mb 70f 82f
6:30 11 17 mph 1007.1mb 70f 82f
6:24 10 15 mph 1007.1mb 70f 82f
6:18 11 17 mph 1007mb - -
6:12 13 16 mph 1006.8mb 70f 83f
6:06 11 16 mph 1006.6mb 70f 83f
6:00 9 15 mph 1006.6mb 70f 84f
5:54 14 21 mph 1006.4mb 70f 84f
5:48 10 14 mph 1006.3mb - -
5:42 9 16 mph 1006.2mb 70f 84f
5:36 13 17 mph 1006mb 70f 85f
5:30 14 18 mph 1006mb 70f 85f
5:24 13 21 mph 1006mb 70f 85f
5:18 11 20 mph 1005.9mb 70f 85f
5:12 11 23 mph 1005.9mb 70f 85f
5:06 14 20 mph 1005.9mb 70f 85f
5:00 14 22 mph 1005.8mb 70f 84f
4:54 14 21 mph 1005.7mb 70f 85f
4:48 15 20 mph 1005.6mb 70f 85f
4:42 10 24 mph 1005.5mb 70f 85f
4:36 14 20 mph 1005.4mb 70f 85f
4:30 13 21 mph 1005.3mb 70f 84f
4:24 15 20 mph 1005.1mb 70f 85f
4:18 14 21 mph 1005.1mb 70f 85f
4:12 15 20 mph 1005mb 70f 85f
4:06 15 21 mph 1004.8mb 70f 84f
4:00 11 23 mph 1004.7mb 70f 85f
3:54 14 21 mph 1004.6mb 70f 84f
3:48 15 26 mph - - -
3:42 13 23 mph 1004.4mb 69f 84f
3:36 15 23 mph 1004.4mb 69f 85f
3:30 16 22 mph 1004.2mb 69f 84f
3:24 15 20 mph 1004.1mb 69f 84f
3:18 17 23 mph 1004mb 69f 84f
3:12 11 16 mph 1003.9mb 69f 85f
3:06 14 22 mph 1003.8mb 69f 84f
3:00 16 21 mph 1003.7mb 69f 84f
2:54 10 17 mph 1003.6mb 69f 84f
2:48 11 16 mph - - -
2:42 11 20 mph 1003.4mb 70f 84f
2:36 17 22 mph 1003.3mb 70f 84f
2:30 11 21 mph 1003.3mb 70f 84f
2:24 10 17 mph 1003.3mb 71f 84f
2:18 11 16 mph 1003.3mb 71f 83f
2:12 13 22 mph 1003.2mb 71f 83f
2:06 17 23 mph 1003.1mb 71f 83f
2:00 18 25 mph 1003mb 71f 83f
1:54 10 20 mph 1002.9mb 71f 82f
1:48 13 18 mph - - -
1:42 13 17 mph 1002.8mb 71f 82f
1:36 8 13 mph 1002.8mb 70f 80f
1:30 10 14 mph 1002.7mb 69f 81f
1:24 7 11 mph 1002.6mb 69f 80f
1:18 10 15 mph - - -
1:12 13 20 mph 1002.6mb 69f 80f
1:06 13 20 mph 1002.4mb 69f 80f
1:00 11 16 mph 1002.4mb 69f 80f
12:54 9 13 mph 1002.4mb 69f 80f
12:48 6 13 mph - - -
12:42 10 15 mph 1002.3mb 68f 79f
12:36 9 16 mph 1002.4mb 68f 79f
12:30 8 15 mph 1002.2mb 68f 78f
12:24 11 14 mph 1002.2mb 68f 78f
12:18 8 11 mph 1002.3mb 68f 76f
12:12 5 9 mph 1002.5mb 68f 73f
12:06 5 5 mph 1002.3mb 68f 72f
12:00 5 6 mph 1002.2mb 68f 71f
11:54 5 6 mph 1002.1mb 67f 71f
11:48 3 5 mph 1002.1mb 67f 70f
11:42 5 5 mph 1002.1mb 67f 70f
11:36 5 7 mph 1002.1mb 67f 70f
11:30 6 8 mph 1001.9mb 67f 69f
11:24 7 8 mph 1001.8mb 66f 69f
11:18 8 8 mph 1002mb 66f 69f
11:12 7 7 mph 1002.2mb 67f 69f
11:06 6 7 mph 1002mb 67f 69f
10:54 6 7 mph 1002.2mb 67f 69f